Date,TemperatureHighF,TemperatureAvgF,TemperatureLowF,DewpointHighF,DewpointAvgF,DewpointLowF,HumidityHigh,HumidityAvg,HumidityLow,PressureMaxIn,PressureMinIn,WindSpeedMaxMPH,WindSpeedAvgMPH,GustSpeedMaxMPH,PrecipitationSumIn
2013-1-1,33.0,23.3,12.0,27.0,-3.5,-99.9,81,52,43,29.80,29.58,15,7,0,0.00
2013-1-2,18.0,10.2,4.0,2.0,-6.2,-99.9,72,54,42,29.99,29.80,15,8,0,0.00
2013-1-3,19.0,7.3,3.0,5.0,-45.8,-99.9,68,31,48,30.06,29.94,11,2,0,0.00
2013-1-4,35.0,26.7,12.0,26.0,-1.3,-99.9,75,56,64,29.94,29.72,8,5,0,0.00
2013-1-5,35.0,27.4,12.0,26.0,6.0,-99.9,73,53,35,30.16,29.70,19,5,0,0.00
2013-1-6,35.0,25.1,13.0,33.0,21.1,4.0,94,85,67,30.10,29.75,9,1,0,0.00
2013-1-7,26.0,17.2,9.0,23.0,10.5,2.0,90,75,54,30.27,29.80,6,2,0,0.00
2013-1-8,42.0,35.6,20.0,34.0,27.3,17.0,89,72,62,30.22,30.01,16,7,0,0.00
2013-1-9,43.0,35.5,24.0,39.0,30.0,20.0,90,80,63,30.25,29.69,11,3,0,0.00
2013-1-10,43.0,37.6,29.0,28.0,23.6,19.0,67,57,47,30.34,29.89,17,9,0,0.00
2013-1-11,29.0,26.9,24.0,20.0,18.1,16.0,71,69,67,30.36,30.28,8,2,0,0.00
2013-1-13,47.0,44.2,42.0,46.0,43.2,41.0,98,97,97,30.15,29.96,9,3,0,0.00
2013-1-14,49.0,45.1,37.0,49.0,41.9,25.0,99,89,62,30.17,29.86,13,6,0,0.00
2013-1-15,37.0,33.1,28.0,26.0,22.5,18.0,81,65,51,30.31,30.16,4,0,0,0.00
2013-1-16,38.0,33.7,29.0,36.0,27.9,15.0,96,81,50,30.29,29.75,11,4,0,0.00
2013-1-17,39.0,25.3,14.0,37.0,8.8,-10.0,92,51,28,30.12,29.75,10,7,0,0.00
2013-1-18,19.0,12.3,6.0,1.0,-5.3,-13.0,59,45,31,30.38,30.09,11,4,0,0.00
2013-1-19,35.0,31.6,19.0,33.0,28.2,0.0,97,89,42,30.37,29.92,13,4,0,0.00
2013-1-20,42.0,35.3,26.0,34.0,20.7,7.0,96,58,38,29.92,29.53,15,8,0,0.00
2013-1-21,25.0,20.1,14.0,14.0,2.4,-5.0,81,47,29,30.02,29.77,14,4,0,0.00
2013-1-22,19.0,12.7,5.0,15.0,2.9,-10.0,84,65,39,29.94,29.75,12,4,0,0.00
2013-1-23,10.0,4.1,1.0,-10.0,-14.5,-18.0,48,40,34,30.03,29.94,15,10,0,0.00
2013-1-25,6.0,6.0,6.0,-4.0,-4.0,-4.0,62,62,62,30.09,30.09,11,11,0,0.00
2013-4-26,53.0,44.3,35.0,38.0,35.0,33.0,92,71,51,30.47,30.42,6,1,0,0.00
2013-4-27,55.0,42.7,32.0,38.0,32.9,27.0,96,71,38,30.47,30.34,11,2,0,0.00
2013-4-28,56.0,44.5,36.0,44.0,37.8,-99.9,93,81,52,30.40,30.30,6,1,0,0.00
2013-4-29,55.0,46.2,35.0,44.0,39.8,33.0,96,80,56,30.35,30.29,9,2,0,0.00
2013-4-30,61.0,48.3,36.0,47.0,38.1,28.0,97,72,28,30.42,30.30,7,1,0,0.00
2013-5-1,61.0,47.8,37.0,44.0,39.2,33.0,97,75,38,30.52,30.42,9,2,0,0.00
2013-5-2,55.0,46.5,38.0,43.0,39.9,36.0,95,78,58,30.57,30.46,6,2,0,0.00
2013-5-3,56.0,47.9,42.0,44.0,40.3,37.0,86,75,60,30.59,30.43,9,3,0,0.00
2013-5-4,52.0,44.5,36.0,41.0,37.5,34.0,96,78,58,30.45,30.38,6,1,0,0.00
2013-5-5,56.0,46.1,34.0,42.0,37.9,32.0,95,75,52,30.38,30.31,10,3,0,0.00
2013-5-6,54.0,44.9,37.0,47.0,42.0,36.0,98,90,75,30.33,30.23,14,4,0,0.00
2013-5-7,61.0,49.3,42.0,51.0,46.3,41.0,99,91,66,30.23,30.16,10,3,0,0.00
2013-5-8,60.0,51.6,44.0,55.0,49.5,43.0,99,93,79,30.32,30.22,7,1,0,0.00
2013-5-9,56.0,50.7,49.0,55.0,49.7,48.0,98,97,96,30.22,29.98,2,0,0,0.00
2013-5-10,58.0,50.9,47.0,56.0,48.2,-99.9,99,96,87,30.04,29.94,6,1,0,0.00
2013-5-11,55.0,49.4,46.0,54.0,48.5,45.0,99,98,97,30.02,29.78,12,3,0,0.00
2013-5-12,55.0,50.8,48.0,54.0,49.9,-99.9,99,99,98,29.78,29.58,9,2,0,0.00
2013-5-13,53.0,47.5,41.0,49.0,39.5,34.0,99,76,50,30.03,29.72,16,6,0,0.00
2013-5-14,49.0,45.4,41.0,40.0,36.6,33.0,90,72,60,30.02,29.95,4,1,0,0.00
2013-5-15,60.0,50.1,37.0,46.0,38.2,28.0,96,67,31,30.03,29.77,14,6,0,0.00
2013-5-16,65.0,50.0,47.0,54.0,28.6,-99.9,97,81,51,29.79,29.61,12,3,0,0.00
2013-5-17,62.0,52.4,44.0,47.0,35.6,-99.9,84,65,46,30.22,29.79,6,1,0,0.00
2013-5-18,53.0,46.0,39.0,44.0,40.1,36.0,91,80,69,30.41,30.22,10,3,0,0.00
2013-5-19,54.0,47.6,39.0,48.0,43.6,37.0,96,86,69,30.44,30.32,9,2,0,0.00
2013-5-20,54.0,49.9,48.0,53.0,48.8,46.0,98,97,94,30.31,29.98,15,3,0,0.00
2013-5-21,49.0,47.4,47.0,48.0,46.4,46.0,98,98,97,30.12,30.04,5,1,0,0.00
2013-5-22,50.0,47.9,47.0,49.0,47.0,46.0,99,98,97,30.10,29.98,5,2,0,0.00
2013-5-23,58.0,52.0,46.0,57.0,51.3,45.0,99,98,97,30.02,29.90,16,3,0,0.00
2013-5-24,58.0,54.6,51.0,58.0,54.6,50.0,99,99,98,29.90,29.74,18,8,0,0.00
2013-5-25,52.0,49.8,47.0,52.0,49.8,47.0,99,99,99,29.85,29.73,7,3,0,0.00
2013-5-26,51.0,47.4,44.0,49.0,46.4,42.0,99,96,89,29.94,29.67,9,2,0,0.00
2013-5-27,66.0,50.5,42.0,46.0,42.0,36.0,96,76,34,30.19,29.94,8,2,0,0.00
2013-5-28,68.0,53.8,39.0,48.0,41.1,37.0,97,67,35,30.27,30.19,9,2,0,0.00
2013-5-29,52.0,48.7,45.0,51.0,47.6,41.0,99,97,86,30.28,30.05,6,1,0,0.00
2013-5-30,79.0,61.3,49.0,65.0,56.6,49.0,99,86,60,30.05,30.00,5,1,0,0.00
2013-5-31,84.0,68.4,56.0,64.0,59.0,55.0,96,74,45,30.07,29.92,9,2,0,0.00
2013-6-1,76.0,65.4,56.0,63.0,58.4,53.0,93,79,64,29.96,29.87,6,1,0,0.00
2013-6-2,72.0,61.8,54.0,63.0,56.2,-99.9,95,85,73,29.87,29.78,15,4,0,0.00
2013-6-3,62.0,57.5,54.0,61.0,56.0,52.0,97,94,86,29.87,29.77,9,1,0,0.00
2013-6-4,68.0,60.0,51.0,55.0,47.0,40.0,97,65,40,30.03,29.78,10,2,0,0.00
2013-6-5,66.0,57.1,47.0,49.0,43.8,40.0,82,63,40,30.19,30.03,7,2,0,0.00
2013-6-6,64.0,55.1,46.0,52.0,48.0,42.0,95,78,54,30.26,30.18,5,1,0,0.00
2013-6-7,58.0,53.4,50.0,52.0,50.1,47.0,96,89,71,30.22,30.04,3,0,0,0.00
2013-6-8,64.0,55.8,50.0,63.0,54.0,49.0,98,94,83,30.05,29.65,7,2,0,0.00
2013-6-9,61.0,55.4,52.0,54.0,52.0,50.0,96,88,78,30.15,29.98,10,2,0,0.00
2013-6-10,66.0,57.3,53.0,56.0,51.8,47.0,97,82,63,30.25,30.11,9,2,0,0.00
2013-6-11,53.0,51.7,50.0,52.0,50.4,48.0,98,96,89,30.11,29.57,7,3,0,0.00
2013-6-12,58.0,54.1,49.0,57.0,53.1,48.0,98,97,96,29.72,29.50,3,0,0,0.00
2013-6-13,68.0,56.6,52.0,58.0,50.1,-99.9,97,83,60,29.83,29.72,7,1,0,0.00
2013-6-14,60.0,53.9,49.0,53.0,49.0,46.0,94,84,67,29.78,29.72,3,0,0,0.00
2013-6-15,77.0,60.4,45.0,52.0,47.2,41.0,96,66,29,29.91,29.75,6,2,0,0.00
2013-6-16,74.0,58.8,53.0,56.0,52.1,49.0,94,80,41,29.93,29.78,8,1,0,0.00
2013-6-17,75.0,61.1,54.0,62.0,56.7,52.0,97,87,55,29.89,29.75,11,2,0,0.00
2013-6-18,68.0,60.4,53.0,59.0,54.4,52.0,97,82,56,29.99,29.86,4,0,0,0.00
2013-6-19,74.0,62.7,51.0,55.0,49.2,41.0,94,65,34,30.15,29.95,4,0,0,0.00
2013-6-20,68.0,58.0,48.0,57.0,50.6,44.0,90,77,56,30.28,30.15,8,1,0,0.00
2013-6-22,71.0,61.1,57.0,63.0,56.7,55.0,92,86,69,30.24,30.15,7,1,0,0.00
2013-6-23,63.0,58.6,55.0,60.0,56.5,53.0,96,93,86,30.19,30.03,9,1,0,0.00
2013-6-24,87.0,78.2,69.0,70.0,66.8,63.0,81,68,53,29.91,29.84,2,1,0,0.00
2013-6-25,81.0,68.3,62.0,66.0,62.9,59.0,95,83,57,29.88,29.74,6,1,0,0.00
2013-6-26,74.0,61.2,55.0,72.0,60.0,54.0,97,95,88,29.93,29.73,4,0,0,0.00
2013-6-27,56.0,53.3,52.0,55.0,52.0,51.0,98,95,92,29.95,29.91,4,1,0,0.00
2013-6-28,59.0,56.0,53.0,58.0,55.0,52.0,98,98,98,29.92,29.65,5,2,0,0.00
2013-6-29,65.0,59.2,57.0,65.0,59.2,56.0,99,99,98,29.77,29.64,8,2,0,0.00
2013-6-30,65.0,60.9,57.0,65.0,60.7,57.0,99,99,97,29.99,29.77,6,1,0,0.00
2013-7-1,71.0,60.3,56.0,69.0,59.6,56.0,99,97,87,30.15,29.99,4,0,0,0.00
2013-7-2,62.0,58.6,55.0,61.0,57.6,54.0,99,97,96,30.26,30.14,7,1,0,0.00
2013-7-3,73.0,61.7,57.0,64.0,58.8,56.0,98,91,72,30.23,30.15,6,0,0,0.00
2013-7-4,84.0,68.9,60.0,71.0,64.7,59.0,98,87,62,30.18,30.09,8,1,0,0.00
2013-7-5,84.0,72.7,63.0,71.0,67.6,61.0,96,85,60,30.12,30.04,3,0,0,0.00